Le nostre stazioni meteo in Italia

Pubblicità
Il mio iltempo24.it
Tyndrum, Gran Bretagna (99020): Temperatura & dewpoint: 13.08.2018 09:00:00 - 19.08.2018 09:00:00 (BST)Tyndrum, Gran Bretagna (99020): precipitazioni: 13.08.2018 09:00:00 - 19.08.2018 09:00:00 (BST)
Data & Tempo tt [°C] td [°C] rr [mm]
19.08.2018 09:00:00 13,3 13,3 -
19.08.2018 08:00:00 12,6 12,5 1,0
19.08.2018 07:00:00 12,1 12,0 0,8
19.08.2018 06:00:00 12,0 11,8 1,8
19.08.2018 05:00:00 12,0 11,7 0,8
19.08.2018 04:00:00 11,9 11,6 0,6
19.08.2018 03:00:00 11,9 11,7 0,2
19.08.2018 02:00:00 11,9 11,7 0,6
19.08.2018 01:00:00 11,7 11,5 0,4
19.08.2018 00:00:00 11,6 11,3 0,0
18.08.2018 23:00:00 11,8 11,4 0,2
18.08.2018 22:00:00 11,7 11,2 0,2
18.08.2018 21:00:00 11,8 11,1 0,2
18.08.2018 20:00:00 12,1 11,0 0,2
18.08.2018 19:00:00 12,8 10,7 0,0
18.08.2018 18:00:00 12,9 10,7 0,0
18.08.2018 17:00:00 12,9 11,1 0,0
18.08.2018 16:00:00 13,3 10,7 0,0
18.08.2018 15:00:00 13,5 11,0 0,0
18.08.2018 14:00:00 13,4 10,5 0,0
18.08.2018 13:00:00 13,2 8,9 0,0
18.08.2018 12:00:00 12,5 10,0 0,4
18.08.2018 11:00:00 13,8 9,4 0,0
18.08.2018 10:00:00 14,1 9,4 0,0
18.08.2018 09:00:00 14,1 9,9 0,0
18.08.2018 08:00:00 14,0 10,1 0,0
18.08.2018 07:00:00 13,7 10,1 0,0
18.08.2018 06:00:00 13,7 10,1 0,0
18.08.2018 05:00:00 13,7 10,5 0,0
18.08.2018 04:00:00 14,5 8,6 0,0
18.08.2018 03:00:00 14,3 9,2 0,0
18.08.2018 02:00:00 14,2 9,7 0,0
18.08.2018 01:00:00 13,2 10,5 0,2
18.08.2018 00:00:00 13,2 9,8 0,0
17.08.2018 23:00:00 13,9 9,2 0,0
17.08.2018 22:00:00 14,2 9,4 0,0
17.08.2018 21:00:00 13,9 9,1 0,0
17.08.2018 20:00:00 14,1 11,6 0,0
17.08.2018 19:00:00 15,4 13,1 0,2
17.08.2018 18:00:00 15,0 13,7 0,8
17.08.2018 17:00:00 14,3 13,3 1,2
17.08.2018 16:00:00 13,5 12,8 1,2
17.08.2018 15:00:00 12,9 12,3 2,2
17.08.2018 14:00:00 12,2 11,4 1,8
17.08.2018 13:00:00 12,1 11,3 1,8
17.08.2018 12:00:00 12,1 11,3 2,4
17.08.2018 11:00:00 11,6 10,9 2,0
17.08.2018 10:00:00 11,2 10,5 1,0
17.08.2018 09:00:00 11,2 9,8 0,4
17.08.2018 08:00:00 11,5 9,1 0,2
17.08.2018 07:00:00 10,3 9,3 0,8
17.08.2018 06:00:00 10,9 8,4 0,0
17.08.2018 05:00:00 11,0 8,8 0,0
17.08.2018 04:00:00 10,8 9,8 1,0
17.08.2018 03:00:00 10,6 9,4 0,8
17.08.2018 02:00:00 11,0 9,8 0,8
17.08.2018 01:00:00 11,0 9,7 0,2
17.08.2018 00:00:00 11,0 9,6 0,8
16.08.2018 23:00:00 11,1 9,4 0,4
16.08.2018 22:00:00 11,2 9,1 0,0
16.08.2018 21:00:00 11,3 9,4 0,6
16.08.2018 20:00:00 12,9 9,0 0,0
16.08.2018 19:00:00 13,7 9,3 0,0
16.08.2018 18:00:00 14,2 9,6 0,0
16.08.2018 17:00:00 14,6 10,5 0,4
16.08.2018 16:00:00 12,4 9,7 1,2
16.08.2018 15:00:00 13,7 10,1 0,0
16.08.2018 14:00:00 13,7 11,3 1,4
16.08.2018 13:00:00 12,1 10,1 1,0
16.08.2018 12:00:00 12,5 9,6 0,2
16.08.2018 11:00:00 11,8 10,1 0,6
16.08.2018 10:00:00 12,0 11,1 0,8
16.08.2018 09:00:00 11,4 9,5 0,4
16.08.2018 08:00:00 11,3 9,6 0,2
16.08.2018 07:00:00 11,4 8,3 0,2
16.08.2018 06:00:00 11,2 9,1 0,0
16.08.2018 05:00:00 10,9 9,5 0,2
16.08.2018 04:00:00 10,4 9,3 0,0
16.08.2018 03:00:00 9,5 8,3 0,0
16.08.2018 02:00:00 10,4 8,1 0,0
16.08.2018 01:00:00 11,3 9,6 0,0
16.08.2018 00:00:00 10,9 9,5 0,6
15.08.2018 23:00:00 12,5 11,8 1,6
15.08.2018 22:00:00 12,9 11,2 0,2
15.08.2018 21:00:00 13,4 11,0 0,0
15.08.2018 20:00:00 14,2 10,7 0,0
15.08.2018 19:00:00 14,5 10,7 0,0
15.08.2018 18:00:00 14,0 11,0 0,2
15.08.2018 17:00:00 14,0 11,5 0,6
15.08.2018 16:00:00 14,5 11,0 0,2
15.08.2018 15:00:00 14,9 11,5 0,0
15.08.2018 14:00:00 15,7 11,9 0,0
15.08.2018 13:00:00 15,5 13,2 0,0
15.08.2018 12:00:00 14,5 13,0 0,2
15.08.2018 11:00:00 15,0 12,4 0,2
15.08.2018 10:00:00 14,8 13,0 0,2
15.08.2018 09:00:00 15,4 12,8 0,0
15.08.2018 08:00:00 15,0 13,5 0,4
15.08.2018 07:00:00 15,7 13,8 0,6
15.08.2018 06:00:00 16,1 13,5 0,4
15.08.2018 05:00:00 15,0 14,6 1,2
15.08.2018 04:00:00 14,3 13,8 0,4
15.08.2018 03:00:00 14,0 13,6 0,4
15.08.2018 02:00:00 13,6 13,0 0,4
15.08.2018 01:00:00 13,4 12,7 0,0
15.08.2018 00:00:00 13,3 12,6 0,0
14.08.2018 23:00:00 13,7 12,1 0,0
14.08.2018 22:00:00 13,8 12,2 0,0
14.08.2018 21:00:00 14,1 12,1 0,0
14.08.2018 20:00:00 14,9 12,3 0,0
14.08.2018 19:00:00 15,8 12,5 0,0
14.08.2018 18:00:00 16,9 14,1 0,0
14.08.2018 17:00:00 15,9 13,9 0,4
14.08.2018 16:00:00 17,2 15,2 0,0
14.08.2018 15:00:00 17,2 15,7 0,4
14.08.2018 14:00:00 16,5 14,5 0,0
14.08.2018 13:00:00 15,5 13,9 0,0
14.08.2018 12:00:00 15,1 13,5 1,2
14.08.2018 11:00:00 14,4 13,1 0,2
14.08.2018 10:00:00 14,1 13,0 0,0
14.08.2018 09:00:00 13,9 13,4 0,0
14.08.2018 08:00:00 12,9 12,6 0,0
14.08.2018 07:00:00 12,5 12,2 0,2
14.08.2018 06:00:00 12,4 12,0 0,2
14.08.2018 05:00:00 12,4 11,9 0,0
14.08.2018 04:00:00 12,1 11,7 0,0
14.08.2018 03:00:00 12,3 11,8 0,0
14.08.2018 02:00:00 12,4 11,8 0,0
14.08.2018 01:00:00 12,5 11,8 0,0
14.08.2018 00:00:00 12,8 12,1 0,0
13.08.2018 23:00:00 13,1 12,3 0,0
13.08.2018 22:00:00 13,3 11,9 0,0
13.08.2018 21:00:00 14,0 12,1 0,0
13.08.2018 20:00:00 14,7 12,9 0,0
13.08.2018 19:00:00 14,9 13,3 0,0
13.08.2018 18:00:00 15,5 14,0 0,0
13.08.2018 17:00:00 16,2 15,2 0,8
13.08.2018 16:00:00 16,6 14,1 0,0
13.08.2018 15:00:00 17,4 13,6 0,0
13.08.2018 14:00:00 17,3 13,9 0,0
13.08.2018 13:00:00 16,9 13,8 0,0
13.08.2018 12:00:00 17,3 13,4 0,0
13.08.2018 11:00:00 16,2 12,8 0,0
13.08.2018 10:00:00 15,5 12,4 0,0
13.08.2018 09:00:00 15,0 12,1 0,0

tt = Temperatura
td = dewpoint
rr = precipitazioni

Stazioni seguenti

WeatherPro
AMSI
MeteoEarth